Location: Curupao
(10.4996°N, 66.6442°W)
Time: 09:57:37
(UTC+00:00)

Delta 128 - Pass Details

Date: 23 May 2024
Orbit: 608 x 1210 km, 28.0° (Epoch: 20 June)

Event Time Altitude Azimuth Distance (km) Brightness Sun altitude
Exits shadow 09:24:39 11° 234° (SW) 2,532 6.0 -9.7°
Maximum altitude 09:30:36 69° 152° (SSE) 866 4.3 -8.4°
Drops below altitude 10° 09:35:48 10° 69° (ENE) 2,209 8.2 -7.2°
Sets 09:38:03 0° 67° (ENE) 3,056 9.9 -6.7°
